Preview of NWS' New Version of Forecast
This preview is not operational and should not be used for support decisions.

Regional Weather Roundup (RWR)

Issued by National Weather Service (NWS)

                            
000
ASUS42 KTBW 222016
RWRFL 
FLORIDA REGIONAL WEATHER ROUNDUP
NATIONAL WEATHER SERVICE TAMPA BAY RUSKIN FL
400 PM EDT MON APR 22 2019

NOTE: "FAIR" INDICATES FEW OR NO CLOUDS BELOW 12,000 FEET WITH NO
SIGNIFICANT WEATHER AND/OR OBSTRUCTIONS TO VISIBILITY.

FLZ001>010-012>015-112-114-115-222100-
PANHANDLE FLORIDA
  
CITY           SKY/WX    TMP DP  RH WIND       PRES   REMARKS
PENSACOLA      FAIR      79  40  24 S10       30.17F                  
PENSACOLA NAS  FAIR      75  46  35 S9        30.18F                  
MILTON NAS     FAIR      80  48  32 SW6       30.16F                  
CRESTVIEW      FAIR      83  42  23 CALM      30.16F                  
DUKE FIELD     FAIR      83  45  26 S10G16    30.14F                  
VALPARAISO     FAIR      77  46  32 SW12      30.16F                  
MARY ESTHER    SUNNY     74  53  47 SW8       30.16F                  
PANAMA CITY    FAIR      79  48  33 SW13      30.13F                  
TYNDALL AFB    FAIR      76  47  35 W14       30.15F                  
APALACHICOLA   FAIR      75  47  36 S13       30.16F                  

STATION/POSITION SKY/WX   TEMP    WIND        PRES    WAVE   SWELL
                          AIR SEA DIR/SP/G            HT/PER HT/PER
                          (F)     (DEG/KT/KT) (MB)    (FT/S) (FT/S)
30.1N   87.6W                                 1022.5F   1
29.2N   88.2W                     110/  6/  8 1022.4F   1/ 3
PANAMA CITY BEAC           70 71  250/ 11/ 11 1021.7F
TOWER C          NOT AVBL

$$
FLZ011-016>038-118-127-128-134-139-239-222100-
NORTH FLORIDA
  
CITY           SKY/WX    TMP DP  RH WIND       PRES   REMARKS
MARIANNA       FAIR      81  44  27 W5        30.13F                  
TALLAHASSEE    FAIR      82  48  30 SW6       30.13F                  
PERRY          FAIR      83  45  26 NE6       30.13F                  
LIVE OAK       SUNNY     81  41  24 E3        30.12F                  
CROSS CITY     FAIR      82  42  24 N8        30.12F                  
LAKE CITY      FAIR      81  41  24 NW6       30.12F                  
GAINESVILLE    FAIR      85  45  24 N6        30.14F                  
PALATKA        FAIR     N/A N/A N/A CALM      30.13F                  
MAYPORT NAS    FAIR      75  48  38 E10       30.14F                  
JACKSONVILLE   FAIR      79  43  27 E10       30.12F                  
JAX NAS        FAIR      81  39  22 E13       30.13F                  
JAX CECIL      SUNNY     86  41  20 NE6       30.12F                  
FERNANDINA BEA FAIR      74  48  39 E9        30.14F                  
ST AUGUSTINE   FAIR      74  50  42 E12       30.16F                  
PALM COAST     SUNNY     75  45  33 E9        30.15F                  

STATION/POSITION SKY/WX   TEMP    WIND        PRES    WAVE   SWELL
                          AIR SEA DIR/SP/G            HT/PER HT/PER
                          (F)     (DEG/KT/KT) (MB)    (FT/S) (FT/S)
SHELL POINT      NOT AVBL
KEATON BEACH               72     250/ 12/ 13 1020.7F
CEDAR KEY                  73     260/  8/ 11 1021.1F
FERNANDINA                 78 70   70/  7/ 12 1021.3F
30.7N   81.3W                 69                N/A     2/ 9
MAYPORT                    72 70   90/  9/ 12 1020.9F
31.4N   80.9W              68 70  130/  8/ 10 1021.0F   2/ 8   2/ 8
ST AUGUSTINE               72 75   80/ 10/ 11 1021.1F

$$
FLZ040-043>046-052-053-057-058-063-144-222100-
INTERIOR CENTRAL FLORIDA
  
CITY           SKY/WX    TMP DP  RH WIND       PRES   REMARKS
OCALA          FAIR      80  42  25 W5        30.13F                  
LEESBURG       FAIR      81  41  24 VRB5      30.13F                  
SANFORD        FAIR      81  45  28 NE5       30.12F                  
ORLANDO EXEC   FAIR      81  40  23 VRB7      30.12F                  
ORLANDO INTL   FAIR      81  40  23 VRB3      30.12F                  
KISSIMMEE      FAIR      80  44  27 E8        30.13F                  
WINTER HAVEN   FAIR      82  45  27 E8        30.13F                  
LAKELAND       SUNNY     79  45  29 N5        30.13F                  
BARTOW         SUNNY     81  45  28 NE5       30.12F                  
SEBRING        FAIR      81  50  34 SW7       30.11F                  
OKEECHOBEE     FAIR      81  50  34 CALM      30.09F                  

$$
FLZ041-047-054-059-064-141-147-222100-
EAST CENTRAL FLORIDA
  
CITY           SKY/WX    TMP DP  RH WIND       PRES   REMARKS
ORMOND BEACH   SUNNY     75  45  33 E12       30.14F                  
DAYTONA BEACH  FAIR      77  49  37 E9        30.14F                  
DELAND         FAIR      79  46  31 E9        30.12F                  
JFK SPACE CTR  FAIR      77  51  40 E9        30.13F                  
TITUSVILLE     SUNNY     81  43  26 NE6       30.14F                  
CAPE CANAVERAL FAIR      76  45  33 NE9       30.12F                  
PATRICK AFB    FAIR      78  49  36 NE13      30.13F                  
MELBOURNE      FAIR      78  50  37 NE10      30.13F                  
VERO BEACH     FAIR      77  55  46 E13       30.12F                  
FT PIERCE      FAIR      78  56  46 NE8       30.11F                  
STUART         MOSUNNY   77  55  47 N9        30.13F                  

STATION/POSITION SKY/WX   TEMP    WIND        PRES    WAVE   SWELL
                          AIR SEA DIR/SP/G            HT/PER HT/PER
                          (F)     (DEG/KT/KT) (MB)    (FT/S) (FT/S)
28.5N   80.2W              72     350/  8/ 10 1021.1F   3/ 9   3/ 9
28.9N   78.5W              73 79   20/ 10/ 14 1020.9F   3/ 9   3/ 9
TRIDENT PIER               75 76   70/ 11/ 16 1021.9F
28.4N   80.5W                 76                N/A     2/ 8
27.5N   80.2W                 74                N/A     3/ 9   2/13

$$
FLZ050-056-061-142-242-148-248-149-249-151-251-155-255-
160-260-222100-
WEST CENTRAL FLORIDA
  
CITY           SKY/WX    TMP DP  RH WIND       PRES   REMARKS
CRYSTAL RIVER  FAIR      79  46  31 W6        30.13F                  
INVERNESS      FAIR      81  45  28 CALM      30.13F                  
BROOKSVILLE    FAIR      81  47  30 VRB3      30.12F                  
CLEARWATER AIR FAIR      73  39  29 NW6       30.12F                  
ST PETE CLEARW FAIR      79  47  32 N6        30.12F                  
TAMPA INTL     FAIR      79  50  36 W9        30.12F                  
TAMPA EXEC     FAIR      82  52  34 NE3       30.13                   
PLANT CITY     FAIR      82  45  26 E3        30.14F                  
MACDILL AFB    FAIR      79  45  29 W5        30.11F                  
PETER O KNIGHT CLOUDY    81  46  30 SE6       30.12F                  
ST PETERSBURG  FAIR      75  46  35 NE9       30.10F                  
SARASOTA       FAIR      80  52  37 W13       30.10F                  
VENICE         FAIR      79  57  47 W10       30.12F                  

STATION/POSITION SKY/WX   TEMP    WIND        PRES    WAVE   SWELL
                          AIR SEA DIR/SP/G            HT/PER HT/PER
                          (F)     (DEG/KT/KT) (MB)    (FT/S) (FT/S)
27.3N   84.2W                 75                N/A     3/ 4
CLEARWATER BEACH           72 73  290/  7/  8 1020.4F
MIDDLE TAMPA BAY           75      10/  8/ 10 1020.2F
VENICE                     74 75  270/  9/ 10 1019.6F

$$
FLZ066-069-070-075>078-162-262-165-265-222100-
SOUTHWEST FLORIDA AND KEYS
  
CITY           SKY/WX    TMP DP  RH WIND       PRES   REMARKS
PUNTA GORDA    FAIR      83  51  33 NE7       30.11F                  
FT MYERS       FAIR      81  51  35 S3        30.09F                  
SOUTHWEST INTL FAIR      82  51  34 CALM      30.09F                  
NAPLES         FAIR      80  64  58 W10       30.09S                  
MARCO ISLAND   FAIR      80  61  52 W12       30.10F                  
IMMOKALEE      FAIR      84  55  37 CALM      30.07F                  
MARATHON       PTSUNNY   83  59  44 E10       30.08F                  
KEY WEST NAS   FAIR      82  60  47 E10       30.08F                  
KEY WEST INTL  FAIR      81  61  50 E10       30.08F                  

STATION/POSITION SKY/WX   TEMP    WIND        PRES    WAVE   SWELL
                          AIR SEA DIR/SP/G            HT/PER HT/PER
                          (F)     (DEG/KT/KT) (MB)    (FT/S) (FT/S)
NAPLES                     80 76  200/  9/ 11 1019.1F
DRY TORTUGAS               75     140/  5/  6 1019.1F
SAND KEY                   76                 1018.7F
SOMBRERO KEY               75                 1018.3F

$$
FLZ067-068-071>074-168-172>174-222100-
SOUTHEAST FLORIDA 
  
CITY           SKY/WX    TMP DP  RH WIND       PRES   REMARKS
W PALM BEACH   FAIR      78  57  48 E12       30.11F                  
BOCA RATON     MOSUNNY   82  55  39 E12G20    30.10F                  
FT LAUDER-EXEC FAIR      80  54  40 NE13G23   30.09F                  
FT LAUDERDALE  FAIR      78  56  46 E14G21    30.09F                  
POMPANO BEACH  FAIR      80  55  42 E14       30.10F                  
PEMBROKE PINES FAIR      79  55  43 NE13G23   30.11F                  
OPA LOCKA      FAIR      80  57  45 NE9G21    30.10F                  
MIAMI          FAIR      80  57  45 E12G17    30.10F                  
WEST KENDALL   FAIR      80  56  43 E17G23    30.08F                  
HOMESTEAD      FAIR      78  58  48 E14       30.09F                  

STATION/POSITION SKY/WX   TEMP    WIND        PRES    WAVE   SWELL
                          AIR SEA DIR/SP/G            HT/PER HT/PER
                          (F)     (DEG/KT/KT) (MB)    (FT/S) (FT/S)
PORT EVERGLADES            76      40/  9/ 15 1019.5F
VIRGINIA KEY               75 80   50/ 10/ 14 1018.7F
LAKE WORTH                 73 78   20/ 13/ 16 1020.7F
SETTLEMENT POINT           73      30/ 11/ 13 1020.0F

$$